Temp
10 10 10 10 10 10 10 10 9 9 8 8 8 8 7 7 7 7 7 7 8 8 8 8 7 7 7 7 7 7 7 7
10 10 10 10 10 10 9 9 9 8 8 7 7 7 7 7 7 7 7 7 8 8 8 7 7 7 6 6 7 7 7 7
10 9 9 10 10 10 10 9 9 8 8 7 7 7 7 6 6 7 7 7 7 7 7 7 7 6 6 6 6 6 6 6
10 9 10 10 10 10 10 10 9 9 8 7 7 7 7 7 6 7 7 7 7 7 7 7 6 6 6 6 6 6 6 6
9 10 9 9 10 10 10 10 10 10 9 8 7 7 7 7 7 7 7 7 7 7 7 7 6 6 6 6 6 6 6 6
9 9 9 9 9 9 10 10 10 10 9 8 7 7 7 7 7 6 6 6 6 6 6 6 6 5 5 5 5 5 5 5
9 9 9 9 9 9 9 10 10 10 9 8 7 7 7 7 6 6 6 6 6 6 6 6 5 5 5 5 5 5 5 5
9 9 9 9 9 9 9 9 10 10 9 9 8 7 6 6 6 6 6 6 5 6 6 5 5 5 5 5 5 5 5 5
8 8 9 9 9 9 9 9 9 9 9 9 8 7 6 6 6 6 6 5 5 5 6 5 5 5 5 4 5 5 5 5
8 8 8 9 9 9 9 9 9 9 9 9 9 7 7 6 6 5 5 5 5 5 5 5 5 5 5 4 4 4 4 4
9 8 8 8 9 8 9 9 9 9 9 9 9 9 7 7 6 5 5 5 5 5 5 5 5 4 4 4 4 4 4 4
9 9 8 8 8 8 8 8 9 9 9 9 9 9 9 7 7 6 5 5 5 5 5 4 4 4 4 4 4 4 4 4
9 9 9 8 8 8 8 8 9 9 9 9 9 9 9 8 7 7 6 6 5 5 5 4 4 4 4 4 4 3 4 4
9 9 9 9 8 8 9 8 8 8 9 8 8 9 9 9 8 8 7 6 6 6 5 5 5 4 4 4 3 3 3 4
9 9 9 9 9 9 8 8 8 8 8 8 8 8 8 8 8 8 7 7 6 6 6 5 5 4 4 4 4 4 4 4
10 9 10 10 9 9 9 9 9 9 9 9 8 8 8 8 8 8 8 7 7 7 6 5 4 4 4 4 3 4 3 3
9 9 9 10 10 9 9 10 10 10 9 9 9 9 8 8 8 8 8 7 7 6 7 7 5 4 4 4 4 3 3 3
8 8 9 9 10 10 10 10 10 10 10 10 10 9 9 8 8 8 8 7 6 6 6 6 5 4 3 4 4 3 3 2
7 7 8 9 9 9 10 10 10 10 10 10 10 10 9 9 9 8 8 7 7 6 6 6 5 5 4 3 2 2 2 2
8 8 7 8 8 9 9 9 9 10 10 10 10 10 10 9 9 8 8 7 7 6 5 4 3 3 2 2 2 2 2 2
Height
3118 3118 3120 3121 3123 3125 3127 3131 3135 3139 3143 3147 3150 3152 3155 3158 3160 3162 3163 3166 3169 3171 3172 3174 3175 3176 3177 3177 3178 3179 3179 3179
3115 3116 3118 3119 3121 3123 3125 3128 3132 3136 3140 3143 3147 3149 3151 3154 3157 3159 3161 3165 3167 3170 3171 3173 3174 3176 3177 3177 3177 3177 3178 3179
3112 3113 3115 3116 3118 3120 3123 3125 3129 3132 3136 3139 3142 3145 3149 3152 3154 3155 3158 3162 3165 3168 3170 3171 3173 3175 3176 3176 3176 3176 3177 3178
3108 3110 3111 3112 3114 3117 3119 3122 3124 3128 3131 3134 3138 3142 3146 3149 3151 3153 3155 3158 3162 3165 3167 3169 3171 3172 3173 3174 3175 3175 3176 3176
3105 3106 3107 3109 3110 3112 3115 3117 3120 3123 3126 3130 3134 3137 3141 3145 3148 3150 3152 3155 3159 3162 3164 3167 3169 3170 3171 3171 3172 3173 3174 3175
3100 3102 3103 3105 3106 3107 3110 3113 3116 3119 3122 3124 3128 3132 3136 3140 3144 3146 3149 3152 3156 3159 3161 3163 3165 3167 3168 3169 3170 3171 3173 3174
3095 3096 3098 3100 3102 3103 3105 3108 3111 3114 3117 3119 3123 3127 3131 3136 3139 3141 3144 3147 3151 3154 3157 3160 3162 3164 3165 3167 3168 3169 3171 3172
3090 3091 3094 3095 3097 3099 3100 3103 3107 3109 3112 3115 3118 3122 3127 3131 3134 3137 3140 3143 3146 3149 3152 3155 3158 3160 3161 3163 3164 3166 3168 3169
3081 3085 3088 3089 3092 3094 3096 3098 3101 3104 3108 3110 3113 3117 3121 3125 3129 3131 3134 3137 3141 3144 3147 3150 3153 3155 3157 3159 3161 3163 3164 3165
3072 3076 3080 3083 3086 3088 3091 3093 3095 3098 3101 3105 3108 3111 3115 3119 3123 3126 3128 3131 3135 3138 3142 3145 3148 3151 3153 3155 3157 3158 3160 3161
3061 3065 3070 3075 3078 3081 3083 3085 3087 3090 3094 3098 3102 3105 3109 3113 3116 3119 3122 3124 3127 3131 3135 3139 3142 3145 3147 3149 3151 3153 3155 3157
3050 3054 3058 3064 3068 3070 3073 3076 3079 3082 3086 3091 3095 3099 3102 3105 3108 3111 3114 3116 3120 3124 3128 3132 3136 3138 3140 3142 3145 3147 3149 3151
3040 3043 3047 3051 3055 3059 3063 3068 3073 3077 3080 3084 3088 3091 3094 3097 3100 3103 3107 3109 3112 3117 3121 3125 3128 3130 3133 3135 3137 3140 3143 3145
3032 3034 3037 3041 3045 3052 3054 3061 3065 3069 3071 3074 3078 3081 3085 3089 3094 3096 3099 3101 3103 3106 3110 3114 3118 3122 3125 3128 3130 3134 3136 3139
3025 3028 3030 3032 3038 3041 3045 3049 3052 3055 3060 3064 3069 3073 3077 3081 3085 3088 3090 3092 3096 3098 3101 3105 3110 3113 3117 3120 3121 3125 3129 3133
3015 3018 3020 3024 3030 3031 3034 3037 3041 3047 3053 3057 3061 3066 3069 3072 3075 3078 3081 3083 3086 3090 3093 3097 3101 3104 3107 3110 3114 3118 3120 3125
3006 3009 3011 3015 3017 3020 3024 3027 3033 3039 3041 3046 3050 3055 3059 3062 3064 3067 3069 3072 3077 3079 3082 3086 3090 3095 3099 3102 3104 3109 3113 3117
2995 2999 3002 3004 3007 3011 3013 3018 3023 3027 3030 3035 3039 3044 3049 3051 3054 3058 3060 3061 3064 3070 3073 3076 3081 3085 3089 3092 3095 3100 3105 3110
2986 2987 2990 2994 2996 2999 3003 3008 3012 3016 3019 3024 3027 3031 3034 3040 3044 3047 3050 3053 3055 3058 3061 3064 3067 3072 3078 3082 3086 3091 3097 3100
2974 2977 2978 2981 2985 2988 2993 2996 2999 3003 3007 3010 3016 3020 3024 3029 3032 3036 3039 3042 3044 3046 3048 3052 3056 3061 3067 3070 3076 3081 3086 3090
Wind_Speed
10 7 11 13 17 20 21 21 22 25 29 30 29 27 25 22 21 20 18 17 15 13 10 8 7 5 2 2 4 5 4 5
10 8 10 13 15 20 22 22 23 25 28 30 30 30 28 25 23 23 21 19 17 14 12 10 9 6 4 3 4 4 4 4
11 8 6 14 17 18 21 23 25 25 28 31 32 32 30 27 26 26 23 21 18 15 14 13 10 8 6 5 5 4 4 4
8 12 11 11 18 21 22 24 25 24 28 32 33 33 31 30 29 28 25 23 20 18 16 15 12 9 8 7 7 6 5 6
11 9 10 11 14 23 25 25 24 22 26 31 33 34 33 32 30 29 27 24 21 19 17 15 13 11 10 9 9 8 7 7
19 19 13 13 14 21 26 25 24 24 25 30 34 35 35 34 32 31 28 25 23 20 19 17 15 13 11 11 12 11 9 9
19 20 18 16 16 16 25 26 26 26 25 30 33 35 35 34 34 33 30 27 25 23 21 19 17 15 13 13 14 13 12 12
23 23 22 22 19 17 18 26 26 26 27 29 32 35 36 36 35 34 32 29 28 25 24 22 19 17 16 16 16 16 16 15
29 26 25 26 24 21 21 22 27 26 27 28 31 34 36 37 36 36 34 32 31 29 28 25 23 21 19 19 19 19 18 18
37 34 32 29 28 26 25 24 27 29 28 28 31 33 36 37 38 37 36 35 34 32 29 27 25 23 22 22 21 21 20 21
45 43 41 36 33 31 29 28 27 31 32 28 29 32 35 37 38 39 38 38 38 36 33 30 28 26 25 25 24 24 23 24
39 43 41 40 37 37 37 33 32 31 35 33 30 30 33 37 39 41 41 42 40 39 36 33 31 30 30 29 28 27 26 27
35 37 39 41 43 41 40 37 34 33 32 36 35 33 34 36 38 40 42 43 42 41 39 36 35 35 34 34 33 31 30 30
33 33 34 40 42 42 42 38 36 34 34 33 39 39 38 38 38 40 41 44 45 44 43 41 40 38 38 36 36 34 33 32
26 28 31 32 33 38 41 41 44 43 40 40 37 39 41 42 40 42 42 43 45 46 44 43 41 41 39 39 39 36 33 32
32 30 33 35 37 41 41 42 41 37 39 40 40 38 37 39 42 45 45 46 47 46 46 46 44 43 42 41 40 38 37 34
37 34 34 37 41 43 42 44 40 34 38 40 41 40 41 42 41 40 43 48 48 49 49 48 48 47 44 43 42 40 38 35
37 39 40 38 42 47 47 45 44 44 44 41 40 42 43 45 45 44 41 42 47 49 50 52 50 48 47 47 45 43 39 36
34 35 36 38 42 43 47 49 48 47 46 47 47 43 43 46 47 45 45 42 42 44 49 51 54 52 50 49 47 43 41 39
40 40 43 41 40 44 45 47 45 46 47 49 50 50 44 41 45 48 46 44 44 45 45 51 54 52 50 50 48 47 44 43
Wind_Direction
249 241 237 232 228 221 212 216 223 223 222 223 225 226 227 226 225 226 229 231 233 236 238 235 231 225 233 311 338 347 352 9
242 254 246 238 235 228 220 218 223 225 225 226 227 228 229 226 226 228 231 233 236 237 240 237 234 230 224 260 302 331 329 350
267 246 249 242 238 235 227 221 222 225 227 226 228 231 232 228 225 226 231 235 237 236 239 236 233 227 227 245 275 295 310 310
271 255 261 267 239 236 234 229 223 230 231 226 225 229 232 231 229 231 230 232 234 235 239 240 233 229 228 237 251 273 287 288
264 259 270 264 247 233 236 234 232 241 235 228 225 226 228 231 231 235 237 238 238 239 244 243 236 231 232 238 243 252 268 276
264 271 263 262 276 241 234 239 241 245 237 230 224 224 226 228 231 234 237 239 241 242 241 241 236 237 241 246 245 251 263 273
265 258 259 260 260 266 240 237 240 241 238 233 227 224 225 229 231 234 236 237 239 240 241 242 240 241 245 253 254 258 263 273
257 258 252 252 253 263 256 244 246 245 240 237 231 226 226 228 230 236 239 239 240 239 241 241 240 239 241 247 248 254 260 266
252 256 255 249 247 252 256 251 246 246 246 240 234 229 227 229 231 233 237 239 240 239 239 239 238 238 240 245 247 252 256 262
249 250 250 249 243 244 251 255 248 246 246 242 238 233 229 230 232 235 236 237 239 240 240 240 239 239 240 244 247 250 255 259
251 247 250 249 242 238 242 247 248 242 242 244 242 237 231 230 234 234 236 238 238 237 237 237 236 237 239 242 245 247 250 255
253 249 248 250 241 239 238 243 242 242 238 240 244 243 237 229 232 233 234 236 238 238 237 236 235 236 237 240 243 245 246 251
253 252 249 238 238 236 240 244 247 250 245 240 240 244 242 236 231 235 236 236 238 239 238 237 236 235 236 238 240 242 245 248
251 255 251 245 242 244 246 247 251 251 247 246 238 238 242 243 238 234 236 237 237 237 237 237 235 235 237 240 243 245 249 252
250 252 256 247 244 245 247 245 243 241 240 240 239 238 241 245 245 242 235 237 239 239 240 240 239 239 240 240 242 245 250 254
247 246 243 244 247 247 248 252 253 248 243 240 241 242 243 244 245 246 245 236 238 241 241 240 239 239 239 241 243 246 249 252
251 249 250 246 246 248 251 250 247 248 245 242 241 240 243 244 243 245 249 246 240 237 240 241 239 238 240 242 243 246 248 250
257 256 251 251 249 246 247 251 253 249 247 245 244 244 246 248 247 247 248 250 246 242 240 241 242 240 239 241 243 244 248 251
253 259 256 255 250 251 252 252 251 251 253 252 248 247 246 249 250 247 246 250 249 245 241 240 241 240 238 241 244 246 248 250
257 255 253 253 254 253 253 255 252 252 253 253 254 251 248 244 248 249 247 246 248 246 244 241 240 239 240 241 241 244 246 249